{"data":{"norad_id":66633,"epoch":"2026-05-25T03:26:55.058784Z","epoch_age_seconds":56429,"freshness":"FRESH","line1":"1 66633U 25271S   26145.14369281  .00025832  00000+0  77256-3 0  9992","line2":"2 66633  53.1585 143.2886 0000939  82.3949 277.7160 15.34419411 29296","mean_motion":15.34419411,"eccentricity":9.39e-5,"inclination_deg":53.1585,"raan_deg":143.2886,"arg_perigee_deg":82.3949,"mean_anomaly_deg":277.716,"bstar":0.00077256,"rev_number":2929,"period_min":93.846570870837,"perigee_km":462.00319775144,"apogee_km":463.28789671381,"semimajor_km":6840.7825472326,"source":"CELESTRAK","updated_at":"2026-05-25T13:38:21.297420Z"}}